Location: ?????????
(41.1143°N, 22.7905°E)
Time: 21:27:34
(UTC+00:00)

Cosmos 923 Rocket - Pass Details

Date: 13 December 2025
Orbit: 755 x 780 km, 74.0° (Epoch: 21 January)

Event Time Altitude Azimuth Distance (km) Brightness Sun altitude
Rises 17:22:54 0° 338° (NNW) 3,221 7.4 -25.9°
Reaches altitude 10° 17:25:17 10° 337° (NNW) 2,290 6.6 -26.4°
Maximum altitude 17:30:27 72° 254° (WSW) 794 4.1 -27.3°
Enters shadow 17:32:23 38° 179° (S) 1,131 4.8 -27.7°
